owner,sensor,date,latitude,longitude,vertical_datum,direction_of_sea_water_velocity,sea_water_speed,upward_sea_water_velocity,qcFlag 
TABS,ioos:station:wmo:42046:1,2004-04-01T00:00:00Z,27.8903,-94.0367,2.0,117.750876,28.0910306,-99999.0,'11111222,11111222,99999999' 
TABS,ioos:station:wmo:42046:1,2004-04-01T00:30:00Z,27.8903,-94.0367,2.0,111.900664,28.92766323,-99999.0,'11111222,11111222,99999999' 
TABS,ioos:station:wmo:42046:1,2004-04-01T01:00:00Z,27.8903,-94.0367,2.0,113.250185,26.21927917,-99999.0,'11111222,11111222,99999999' 
TABS,ioos:station:wmo:42046:1,2004-04-01T01:30:00Z,27.8903,-94.0367,2.0,114.6323353,31.95817423,-99999.0,'11111222,11111222,99999999' 
TABS,ioos:station:wmo:42046:1,2004-04-01T02:00:00Z,27.8903,-94.0367,2.0,115.456017,30.50120817,-99999.0,'11111222,11111222,99999999' 
TABS,ioos:station:wmo:42046:1,2004-04-01T02:30:00Z,27.8903,-94.0367,2.0,119.3249226,33.34267236,-99999.0,'11111222,11111222,99999999' 
TABS,ioos:station:wmo:42046:1,2004-04-01T03:00:00Z,27.8903,-94.0367,2.0,119.8557852,32.01962679,-99999.0,'11111222,11111222,99999999' 
TABS,ioos:station:wmo:42046:1,2004-04-01T03:30:00Z,27.8903,-94.0367,2.0,120.87185,33.16958396,-99999.0,'11111222,11111222,99999999' 
TABS,ioos:station:wmo:42046:1,2004-04-01T04:00:00Z,27.8903,-94.0367,2.0,126.7434474,32.6460794,-99999.0,'11111222,11111222,99999999' 
TABS,ioos:station:wmo:42046:1,2004-04-01T04:30:00Z,27.8903,-94.0367,2.0,129.8523538,32.86451734,-99999.0,'11111222,11111222,99999999' 
TABS,ioos:station:wmo:42046:1,2004-04-01T05:00:00Z,27.8903,-94.0367,2.0,133.8066592,33.61607502,-99999.0,'11111222,11111222,99999999' 
TABS,ioos:station:wmo:42046:1,2004-04-01T05:30:00Z,27.8903,-94.0367,2.0,137.5972748,31.98701768,-99999.0,'11111222,11111222,99999999' 
TABS,ioos:station:wmo:42046:1,2004-04-01T06:00:00Z,27.8903,-94.0367,2.0,136.137448,34.54897538,-99999.0,'11111222,11111222,99999999' 
TABS,ioos:station:wmo:42046:1,2004-04-01T06:30:00Z,27.8903,-94.0367,2.0,144.5634932,32.21808343,-99999.0,'11111222,11111222,99999999' 
TABS,ioos:station:wmo:42046:1,2004-04-01T07:00:00Z,27.8903,-94.0367,2.0,146.2346344,33.82564707,-99999.0,'11111222,11111222,99999999' 
TABS,ioos:station:wmo:42046:1,2004-04-01T07:30:00Z,27.8903,-94.0367,2.0,144.3758904,31.64148069,-99999.0,'11111222,11111222,99999999' 
TABS,ioos:station:wmo:42046:1,2004-04-01T08:00:00Z,27.8903,-94.0367,2.0,142.031853,30.78565413,-99999.0,'11111222,11111222,99999999' 
TABS,ioos:station:wmo:42046:1,2004-04-01T08:30:00Z,27.8903,-94.0367,2.0,146.4428112,29.86791255,-99999.0,'11111222,11111222,99999999' 
TABS,ioos:station:wmo:42046:1,2004-04-01T09:00:00Z,27.8903,-94.0367,2.0,156.6959833,31.44531762,-99999.0,'11111222,11111222,99999999' 
TABS,ioos:station:wmo:42046:1,2004-04-01T09:30:00Z,27.8903,-94.0367,2.0,156.0516928,28.4053252,-99999.0,'11111222,11111222,99999999' 
TABS,ioos:station:wmo:42046:1,2004-04-01T10:00:00Z,27.8903,-94.0367,2.0,153.665508,28.87681596,-99999.0,'11111222,11111222,99999999' 
TABS,ioos:station:wmo:42046:1,2004-04-01T10:30:00Z,27.8903,-94.0367,2.0,156.1239557,28.21447146,-99999.0,'11111222,11111222,99999999' 
TABS,ioos:station:wmo:42046:1,2004-04-01T11:00:00Z,27.8903,-94.0367,2.0,156.17975,26.14727519,-99999.0,'11111222,11111222,99999999' 
TABS,ioos:station:wmo:42046:1,2004-04-01T11:30:00Z,27.8903,-94.0367,2.0,151.1165216,26.64443281,-99999.0,'11111222,11111222,99999999' 
TABS,ioos:station:wmo:42046:1,2004-04-01T12:00:00Z,27.8903,-94.0367,2.0,151.7256441,23.39073321,-99999.0,'11111222,11111222,99999999' 
TABS,ioos:station:wmo:42046:1,2004-04-01T12:30:00Z,27.8903,-94.0367,2.0,142.0378191,23.08419373,-99999.0,'11111222,11111222,99999999' 
TABS,ioos:station:wmo:42046:1,2004-04-01T13:00:00Z,27.8903,-94.0367,2.0,143.6629455,21.50093021,-99999.0,'11111222,11111222,99999999' 
TABS,ioos:station:wmo:42046:1,2004-04-01T13:30:00Z,27.8903,-94.0367,2.0,133.8994358,18.77714835,-99999.0,'11111222,11111222,99999999' 
TABS,ioos:station:wmo:42046:1,2004-04-01T14:00:00Z,27.8903,-94.0367,2.0,130.291607,21.27793458,-99999.0,'11111222,11111222,99999999' 
TABS,ioos:station:wmo:42046:1,2004-04-01T14:30:00Z,27.8903,-94.0367,2.0,124.5679608,22.80640261,-99999.0,'11111222,11111222,99999999' 
TABS,ioos:station:wmo:42046:1,2004-04-01T15:30:00Z,27.8903,-94.0367,2.0,119.6533782,25.64917543,-99999.0,'11111222,11111222,99999999' 
TABS,ioos:station:wmo:42046:1,2004-04-01T16:00:00Z,27.8903,-94.0367,2.0,116.2882007,28.69803129,-99999.0,'11111222,11111222,99999999' 
TABS,ioos:station:wmo:42046:1,2004-04-01T16:30:00Z,27.8903,-94.0367,2.0,118.9448707,29.93994155,-99999.0,'11111222,11111222,99999999' 
TABS,ioos:station:wmo:42046:1,2004-04-01T17:00:00Z,27.8903,-94.0367,2.0,116.9902291,29.52585477,-99999.0,'11111222,11111222,99999999' 
TABS,ioos:station:wmo:42046:1,2004-04-01T17:30:00Z,27.8903,-94.0367,2.0,115.8209316,31.33889915,-99999.0,'11111222,11111222,99999999' 
TABS,ioos:station:wmo:42046:1,2004-04-01T18:30:00Z,27.8903,-94.0367,2.0,118.1418717,34.9406139,-99999.0,'11111222,11111222,99999999' 
TABS,ioos:station:wmo:42046:1,2004-04-01T19:00:00Z,27.8903,-94.0367,2.0,120.1650657,32.97552122,-99999.0,'11111222,11111222,99999999' 
TABS,ioos:station:wmo:42046:1,2004-04-01T19:30:00Z,27.8903,-94.0367,2.0,121.7982758,34.61551675,-99999.0,'11111222,11111222,99999999' 
TABS,ioos:station:wmo:42046:1,2004-04-01T20:00:00Z,27.8903,-94.0367,2.0,124.090148,35.34358499,-99999.0,'11111222,11111222,99999999' 
TABS,ioos:station:wmo:42046:1,2004-04-01T20:30:00Z,27.8903,-94.0367,2.0,126.8634314,35.92200022,-99999.0,'11111222,11111222,99999999' 
TABS,ioos:station:wmo:42046:1,2004-04-01T21:30:00Z,27.8903,-94.0367,2.0,130.2233161,38.97674307,-99999.0,'11111222,11111222,99999999' 
TABS,ioos:station:wmo:42046:1,2004-04-01T22:00:00Z,27.8903,-94.0367,2.0,134.5945813,38.98377226,-99999.0,'11111222,11111222,99999999' 
TABS,ioos:station:wmo:42046:1,2004-04-01T22:30:00Z,27.8903,-94.0367,2.0,138.5267033,38.27747249,-99999.0,'11111222,11111222,99999999' 
TABS,ioos:station:wmo:42046:1,2004-04-01T23:00:00Z,27.8903,-94.0367,2.0,142.5983775,34.7054938,-99999.0,'11111222,11111222,99999999' 
TABS,ioos:station:wmo:42046:1,2004-04-01T23:30:00Z,27.8903,-94.0367,2.0,144.615744,36.87039598,-99999.0,'11111222,11111222,99999999' 
TABS,ioos:station:wmo:42046:1,2004-04-02T00:00:00Z,27.8903,-94.0367,2.0,146.9100189,34.94802999,-99999.0,'11111222,11111222,99999999' 
TABS,ioos:station:wmo:42046:1,2004-04-02T00:30:00Z,27.8903,-94.0367,2.0,149.0914796,35.48993378,-99999.0,'11111222,11111222,99999999' 
TABS,ioos:station:wmo:42046:1,2004-04-02T01:00:00Z,27.8903,-94.0367,2.0,151.0144487,29.75730667,-99999.0,'11111222,11111222,99999999' 
TABS,ioos:station:wmo:42046:1,2004-04-02T01:30:00Z,27.8903,-94.0367,2.0,159.5463152,27.47194205,-99999.0,'11111222,11111222,99999999' 
TABS,ioos:station:wmo:42046:1,2004-04-02T02:00:00Z,27.8903,-94.0367,2.0,159.6736349,25.96695785,-99999.0,'11111222,11111222,99999999' 
TABS,ioos:station:wmo:42046:1,2004-04-02T02:30:00Z,27.8903,-94.0367,2.0,159.7912685,24.31691592,-99999.0,'11111222,11111222,99999999' 
TABS,ioos:station:wmo:42046:1,2004-04-02T03:00:00Z,27.8903,-94.0367,2.0,157.3023444,18.16693975,-99999.0,'11111222,11111222,99999999' 
TABS,ioos:station:wmo:42046:1,2004-04-02T03:30:00Z,27.8903,-94.0367,2.0,158.8950003,15.88555319,-99999.0,'11111222,11111222,99999999' 
TABS,ioos:station:wmo:42046:1,2004-04-02T04:00:00Z,27.8903,-94.0367,2.0,162.3735979,11.42644739,-99999.0,'11111222,11111222,99999999' 
TABS,ioos:station:wmo:42046:1,2004-04-02T04:30:00Z,27.8903,-94.0367,2.0,151.8611401,8.142358381,-99999.0,'11133222,11111222,99999999' 
TABS,ioos:station:wmo:42046:1,2004-04-02T05:00:00Z,27.8903,-94.0367,2.0,132.4634801,7.509760316,-99999.0,'11133222,11111222,99999999' 
TABS,ioos:station:wmo:42046:1,2004-04-02T05:30:00Z,27.8903,-94.0367,2.0,124.7304058,7.179004109,-99999.0,'11133222,11111222,99999999' 
TABS,ioos:station:wmo:42046:1,2004-04-02T06:00:00Z,27.8903,-94.0367,2.0,142.3105492,8.390858121,-99999.0,'11133222,11111222,99999999' 
TABS,ioos:station:wmo:42046:1,2004-04-02T06:30:00Z,27.8903,-94.0367,2.0,122.6971972,8.163638895,-99999.0,'11133222,11111222,99999999' 
TABS,ioos:station:wmo:42046:1,2004-04-02T07:00:00Z,27.8903,-94.0367,2.0,126.2807061,9.142483251,-99999.0,'11133222,11111222,99999999' 
TABS,ioos:station:wmo:42046:1,2004-04-02T07:30:00Z,27.8903,-94.0367,2.0,121.8795223,10.62226435,-99999.0,'11111222,11111222,99999999' 
TABS,ioos:station:wmo:42046:1,2004-04-02T08:00:00Z,27.8903,-94.0367,2.0,118.8555937,10.07035253,-99999.0,'11111222,11111222,99999999' 
TABS,ioos:station:wmo:42046:1,2004-04-02T08:30:00Z,27.8903,-94.0367,2.0,121.5237172,12.10666345,-99999.0,'11111222,11111222,99999999' 
TABS,ioos:station:wmo:42046:1,2004-04-02T09:00:00Z,27.8903,-94.0367,2.0,123.0364017,11.42756755,-99999.0,'11111222,11111222,99999999' 
TABS,ioos:station:wmo:42046:1,2004-04-02T09:30:00Z,27.8903,-94.0367,2.0,108.6378042,11.60879408,-99999.0,'11111222,11111222,99999999' 
TABS,ioos:station:wmo:42046:1,2004-04-02T10:00:00Z,27.8903,-94.0367,2.0,109.8615733,11.68507595,-99999.0,'11111222,11111222,99999999' 
TABS,ioos:station:wmo:42046:1,2004-04-02T10:30:00Z,27.8903,-94.0367,2.0,114.3835467,12.57134042,-99999.0,'11111222,11111222,99999999' 
TABS,ioos:station:wmo:42046:1,2004-04-02T11:00:00Z,27.8903,-94.0367,2.0,110.2534691,10.86156987,-99999.0,'11111222,11111222,99999999' 
TABS,ioos:station:wmo:42046:1,2004-04-02T11:30:00Z,27.8903,-94.0367,2.0,92.16975015,8.716249193,-99999.0,'11133222,11111222,99999999' 
TABS,ioos:station:wmo:42046:1,2004-04-02T12:00:00Z,27.8903,-94.0367,2.0,83.94130409,11.46403507,-99999.0,'11111222,11111222,99999999' 
TABS,ioos:station:wmo:42046:1,2004-04-02T12:30:00Z,27.8903,-94.0367,2.0,80.31870884,12.90377077,-99999.0,'11111222,11111222,99999999' 
TABS,ioos:station:wmo:42046:1,2004-04-02T13:00:00Z,27.8903,-94.0367,2.0,83.18380661,15.41898181,-99999.0,'11111222,11111222,99999999' 
TABS,ioos:station:wmo:42046:1,2004-04-02T13:30:00Z,27.8903,-94.0367,2.0,76.79857101,18.47832514,-99999.0,'11111222,11111222,99999999' 
TABS,ioos:station:wmo:42046:1,2004-04-02T14:00:00Z,27.8903,-94.0367,2.0,84.00814056,19.2551967,-99999.0,'11111222,11111222,99999999' 
TABS,ioos:station:wmo:42046:1,2004-04-02T14:30:00Z,27.8903,-94.0367,2.0,91.08903068,19.99361148,-99999.0,'11111222,11111222,99999999' 
TABS,ioos:station:wmo:42046:1,2004-04-02T15:00:00Z,27.8903,-94.0367,2.0,89.7233331,22.78026558,-99999.0,'11111222,11111222,99999999' 
TABS,ioos:station:wmo:42046:1,2004-04-02T15:30:00Z,27.8903,-94.0367,2.0,86.76969553,26.44201392,-99999.0,'11111222,11111222,99999999' 
TABS,ioos:station:wmo:42046:1,2004-04-02T16:00:00Z,27.8903,-94.0367,2.0,86.8371083,26.28003234,-99999.0,'11111222,11111222,99999999' 
TABS,ioos:station:wmo:42046:1,2004-04-02T16:30:00Z,27.8903,-94.0367,2.0,87.94619876,26.78720777,-99999.0,'11111222,11111222,99999999' 
TABS,ioos:station:wmo:42046:1,2004-04-02T17:00:00Z,27.8903,-94.0367,2.0,93.46997915,29.57422019,-99999.0,'11111222,11111222,99999999' 
TABS,ioos:station:wmo:42046:1,2004-04-02T17:30:00Z,27.8903,-94.0367,2.0,96.02124853,29.36198903,-99999.0,'11111222,11111222,99999999' 
TABS,ioos:station:wmo:42046:1,2004-04-02T18:00:00Z,27.8903,-94.0367,2.0,91.48718268,32.75103204,-99999.0,'11111222,11111222,99999999' 
TABS,ioos:station:wmo:42046:1,2004-04-02T18:30:00Z,27.8903,-94.0367,2.0,98.52145416,33.54027132,-99999.0,'11111222,11111222,99999999' 
TABS,ioos:station:wmo:42046:1,2004-04-02T19:00:00Z,27.8903,-94.0367,2.0,103.2354613,32.62665321,-99999.0,'11111222,11111222,99999999' 
TABS,ioos:station:wmo:42046:1,2004-04-02T19:30:00Z,27.8903,-94.0367,2.0,101.9931493,33.87951003,-99999.0,'11111222,11111222,99999999' 
TABS,ioos:station:wmo:42046:1,2004-04-02T20:00:00Z,27.8903,-94.0367,2.0,94.07220901,33.51461323,-99999.0,'11111222,11111222,99999999' 
TABS,ioos:station:wmo:42046:1,2004-04-02T20:30:00Z,27.8903,-94.0367,2.0,100.0638948,33.82037995,-99999.0,'11111222,11111222,99999999' 
TABS,ioos:station:wmo:42046:1,2004-04-02T21:00:00Z,27.8903,-94.0367,2.0,105.5203102,32.58831692,-99999.0,'11111222,11111222,99999999' 
TABS,ioos:station:wmo:42046:1,2004-04-02T21:30:00Z,27.8903,-94.0367,2.0,104.4298218,31.42123168,-99999.0,'11111222,11111222,99999999' 
TABS,ioos:station:wmo:42046:1,2004-04-02T22:00:00Z,27.8903,-94.0367,2.0,109.8908755,31.86074701,-99999.0,'11111222,11111222,99999999' 
TABS,ioos:station:wmo:42046:1,2004-04-02T22:30:00Z,27.8903,-94.0367,2.0,107.6136434,31.3287408,-99999.0,'11111222,11111222,99999999' 
TABS,ioos:station:wmo:42046:1,2004-04-02T23:00:00Z,27.8903,-94.0367,2.0,112.758428,31.79547767,-99999.0,'11111222,11111222,99999999' 
TABS,ioos:station:wmo:42046:1,2004-04-02T23:30:00Z,27.8903,-94.0367,2.0,111.4496536,29.04144108,-99999.0,'11111222,11111222,99999999' 
TABS,ioos:station:wmo:42046:1,2004-04-03T00:00:00Z,27.8903,-94.0367,2.0,112.8713156,28.73950765,-99999.0,'11111222,11111222,99999999' 
TABS,ioos:station:wmo:42046:1,2004-04-03T00:30:00Z,27.8903,-94.0367,2.0,117.5632213,29.52057757,-99999.0,'11111222,11111222,99999999' 
TABS,ioos:station:wmo:42046:1,2004-04-03T01:00:00Z,27.8903,-94.0367,2.0,120.3367659,28.21320613,-99999.0,'11111222,11111222,99999999' 
TABS,ioos:station:wmo:42046:1,2004-04-03T01:30:00Z,27.8903,-94.0367,2.0,121.9583631,27.16775478,-99999.0,'11111222,11111222,99999999' 
TABS,ioos:station:wmo:42046:1,2004-04-03T02:00:00Z,27.8903,-94.0367,2.0,124.5148691,27.54926678,-99999.0,'11111222,11111222,99999999' 
TABS,ioos:station:wmo:42046:1,2004-04-03T02:30:00Z,27.8903,-94.0367,2.0,122.3574825,25.5231111,-99999.0,'11111222,11111222,99999999' 
TABS,ioos:station:wmo:42046:1,2004-04-03T03:00:00Z,27.8903,-94.0367,2.0,124.2223444,25.37308219,-99999.0,'11111222,11111222,99999999' 
TABS,ioos:station:wmo:42046:1,2004-04-03T03:30:00Z,27.8903,-94.0367,2.0,127.691806,26.34871154,-99999.0,'11111222,11111222,99999999' 
TABS,ioos:station:wmo:42046:1,2004-04-03T04:00:00Z,27.8903,-94.0367,2.0,132.248102,22.68185619,-99999.0,'11111222,11111222,99999999' 
TABS,ioos:station:wmo:42046:1,2004-04-03T04:30:00Z,27.8903,-94.0367,2.0,129.8829097,18.94819516,-99999.0,'11111222,11111222,99999999' 
TABS,ioos:station:wmo:42046:1,2004-04-03T05:00:00Z,27.8903,-94.0367,2.0,138.1846221,18.32822959,-99999.0,'11111222,11111222,99999999' 
TABS,ioos:station:wmo:42046:1,2004-04-03T05:30:00Z,27.8903,-94.0367,2.0,139.1410417,13.51273473,-99999.0,'11111222,11111222,99999999' 
TABS,ioos:station:wmo:42046:1,2004-04-03T06:00:00Z,27.8903,-94.0367,2.0,134.5701855,11.31402669,-99999.0,'11111222,11111222,99999999' 
TABS,ioos:station:wmo:42046:1,2004-04-03T06:30:00Z,27.8903,-94.0367,2.0,132.6482123,6.893025461,-99999.0,'11133222,11111222,99999999' 
TABS,ioos:station:wmo:42046:1,2004-04-03T07:00:00Z,27.8903,-94.0367,2.0,151.0782846,5.438244202,-99999.0,'11133222,11111222,99999999' 
TABS,ioos:station:wmo:42046:1,2004-04-03T07:30:00Z,27.8903,-94.0367,2.0,103.6489093,5.38198848,-99999.0,'11133222,11111222,99999999' 
TABS,ioos:station:wmo:42046:1,2004-04-03T08:00:00Z,27.8903,-94.0367,2.0,61.79257508,4.992955037,-99999.0,'11133222,11111222,99999999' 
TABS,ioos:station:wmo:42046:1,2004-04-03T08:30:00Z,27.8903,-94.0367,2.0,36.18773749,6.046428698,-99999.0,'11133222,11111222,99999999' 
TABS,ioos:station:wmo:42046:1,2004-04-03T09:00:00Z,27.8903,-94.0367,2.0,23.1424273,8.014948534,-99999.0,'11133222,11111222,99999999' 
TABS,ioos:station:wmo:42046:1,2004-04-03T09:30:00Z,27.8903,-94.0367,2.0,45.15009349,5.402314319,-99999.0,'11133222,11111222,99999999' 
TABS,ioos:station:wmo:42046:1,2004-04-03T10:00:00Z,27.8903,-94.0367,2.0,24.56957541,13.22765663,-99999.0,'11111222,11111222,99999999' 
TABS,ioos:station:wmo:42046:1,2004-04-03T10:30:00Z,27.8903,-94.0367,2.0,30.70957976,15.84148036,-99999.0,'11111222,11111222,99999999' 
TABS,ioos:station:wmo:42046:1,2004-04-03T11:00:00Z,27.8903,-94.0367,2.0,27.60112494,18.7994601,-99999.0,'11111222,11111222,99999999' 
TABS,ioos:station:wmo:42046:1,2004-04-03T11:30:00Z,27.8903,-94.0367,2.0,28.29362995,21.35074706,-99999.0,'11111222,11111222,99999999' 
TABS,ioos:station:wmo:42046:1,2004-04-03T12:00:00Z,27.8903,-94.0367,2.0,34.90879875,24.77851489,-99999.0,'11111222,11111222,99999999' 
TABS,ioos:station:wmo:42046:1,2004-04-03T12:30:00Z,27.8903,-94.0367,2.0,40.04909135,25.31696072,-99999.0,'11111222,11111222,99999999' 
TABS,ioos:station:wmo:42046:1,2004-04-03T13:00:00Z,27.8903,-94.0367,2.0,46.76663522,27.06676929,-99999.0,'11111222,11111222,99999999' 
TABS,ioos:station:wmo:42046:1,2004-04-03T13:30:00Z,27.8903,-94.0367,2.0,44.00825337,29.00279469,-99999.0,'11111222,11111222,99999999' 
TABS,ioos:station:wmo:42046:1,2004-04-03T14:00:00Z,27.8903,-94.0367,2.0,52.28025846,29.7972784,-99999.0,'11111222,11111222,99999999' 
TABS,ioos:station:wmo:42046:1,2004-04-03T14:30:00Z,27.8903,-94.0367,2.0,53.84668387,29.748326,-99999.0,'11111222,11111222,99999999' 
TABS,ioos:station:wmo:42046:1,2004-04-03T15:00:00Z,27.8903,-94.0367,2.0,57.96381337,29.50292528,-99999.0,'11111222,11111222,99999999' 
TABS,ioos:station:wmo:42046:1,2004-04-03T15:30:00Z,27.8903,-94.0367,2.0,63.29701176,29.70848532,-99999.0,'11111222,11111222,99999999' 
TABS,ioos:station:wmo:42046:1,2004-04-03T16:00:00Z,27.8903,-94.0367,2.0,60.70542065,29.6749861,-99999.0,'11111222,11111222,99999999' 
TABS,ioos:station:wmo:42046:1,2004-04-03T16:30:00Z,27.8903,-94.0367,2.0,63.81444676,30.38883018,-99999.0,'11111222,11111222,99999999' 
TABS,ioos:station:wmo:42046:1,2004-04-03T17:00:00Z,27.8903,-94.0367,2.0,68.57851582,30.52898459,-99999.0,'11111222,11111222,99999999' 
TABS,ioos:station:wmo:42046:1,2004-04-03T17:30:00Z,27.8903,-94.0367,2.0,66.63482854,33.40975007,-99999.0,'11111222,11111222,99999999' 
TABS,ioos:station:wmo:42046:1,2004-04-03T18:00:00Z,27.8903,-94.0367,2.0,64.74401424,30.53924197,-99999.0,'11111222,11111222,99999999' 
TABS,ioos:station:wmo:42046:1,2004-04-03T18:30:00Z,27.8903,-94.0367,2.0,67.67719382,31.01426285,-99999.0,'11111222,11111222,99999999' 
TABS,ioos:station:wmo:42046:1,2004-04-03T19:00:00Z,27.8903,-94.0367,2.0,72.66287115,28.38981508,-99999.0,'11111222,11111222,99999999' 
TABS,ioos:station:wmo:42046:1,2004-04-03T19:30:00Z,27.8903,-94.0367,2.0,73.67162902,28.56202024,-99999.0,'11111222,11111222,99999999' 
TABS,ioos:station:wmo:42046:1,2004-04-03T20:00:00Z,27.8903,-94.0367,2.0,78.94486902,30.87290722,-99999.0,'11111222,11111222,99999999' 
TABS,ioos:station:wmo:42046:1,2004-04-03T20:30:00Z,27.8903,-94.0367,2.0,79.97108568,30.08977401,-99999.0,'11111222,11111222,99999999' 
TABS,ioos:station:wmo:42046:1,2004-04-03T21:00:00Z,27.8903,-94.0367,2.0,85.19082443,30.29666153,-99999.0,'11111222,11111222,99999999' 
TABS,ioos:station:wmo:42046:1,2004-04-03T21:30:00Z,27.8903,-94.0367,2.0,94.52138363,30.44474503,-99999.0,'11111222,11111222,99999999' 
TABS,ioos:station:wmo:42046:1,2004-04-03T22:00:00Z,27.8903,-94.0367,2.0,99.78238416,27.0736477,-99999.0,'11111222,11111222,99999999' 
TABS,ioos:station:wmo:42046:1,2004-04-03T22:30:00Z,27.8903,-94.0367,2.0,102.8982427,26.74482754,-99999.0,'11111222,11111222,99999999' 
TABS,ioos:station:wmo:42046:1,2004-04-03T23:00:00Z,27.8903,-94.0367,2.0,104.0035636,25.53900546,-99999.0,'11111222,11111222,99999999' 
TABS,ioos:station:wmo:42046:1,2004-04-03T23:30:00Z,27.8903,-94.0367,2.0,106.8817949,27.65162744,-99999.0,'11111222,11111222,99999999' 
TABS,ioos:station:wmo:42046:1,2004-04-04T00:00:00Z,27.8903,-94.0367,2.0,97.84939855,25.11532003,-99999.0,'11111222,11111222,99999999' 
TABS,ioos:station:wmo:42046:1,2004-04-04T00:30:00Z,27.8903,-94.0367,2.0,107.725921,26.83398032,-99999.0,'11111222,11111222,99999999' 
TABS,ioos:station:wmo:42046:1,2004-04-04T01:00:00Z,27.8903,-94.0367,2.0,108.4216826,27.40429893,-99999.0,'11111222,11111222,99999999' 
TABS,ioos:station:wmo:42046:1,2004-04-04T01:30:00Z,27.8903,-94.0367,2.0,120.660492,23.98269793,-99999.0,'11111222,11111222,99999999' 
TABS,ioos:station:wmo:42046:1,2004-04-04T02:00:00Z,27.8903,-94.0367,2.0,119.4086008,24.51960848,-99999.0,'11111222,11111222,99999999' 
TABS,ioos:station:wmo:42046:1,2004-04-04T02:30:00Z,27.8903,-94.0367,2.0,118.9293273,22.22307359,-99999.0,'11111222,11111222,99999999' 
TABS,ioos:station:wmo:42046:1,2004-04-04T03:00:00Z,27.8903,-94.0367,2.0,127.387975,23.22094959,-99999.0,'11111222,11111222,99999999' 
TABS,ioos:station:wmo:42046:1,2004-04-04T03:30:00Z,27.8903,-94.0367,2.0,127.7731575,23.21488531,-99999.0,'11111222,11111222,99999999' 
TABS,ioos:station:wmo:42046:1,2004-04-04T04:00:00Z,27.8903,-94.0367,2.0,128.9549713,22.42684998,-99999.0,'11111222,11111222,99999999' 
TABS,ioos:station:wmo:42046:1,2004-04-04T04:30:00Z,27.8903,-94.0367,2.0,137.098598,21.43264099,-99999.0,'11111222,11111222,99999999' 
TABS,ioos:station:wmo:42046:1,2004-04-04T05:00:00Z,27.8903,-94.0367,2.0,129.6226988,18.86376951,-99999.0,'11111222,11111222,99999999' 
TABS,ioos:station:wmo:42046:1,2004-04-04T05:30:00Z,27.8903,-94.0367,2.0,126.2783572,16.27486713,-99999.0,'11111222,11111222,99999999' 
TABS,ioos:station:wmo:42046:1,2004-04-04T06:00:00Z,27.8903,-94.0367,2.0,122.4303231,14.00401728,-99999.0,'11111222,11111222,99999999' 
TABS,ioos:station:wmo:42046:1,2004-04-04T06:30:00Z,27.8903,-94.0367,2.0,141.4540681,18.05372261,-99999.0,'11111222,11111222,99999999' 
TABS,ioos:station:wmo:42046:1,2004-04-04T07:00:00Z,27.8903,-94.0367,2.0,125.791134,14.44856048,-99999.0,'11111222,11111222,99999999' 
TABS,ioos:station:wmo:42046:1,2004-04-04T07:30:00Z,27.8903,-94.0367,2.0,125.1623557,15.97509311,-99999.0,'11111222,11111222,99999999' 
TABS,ioos:station:wmo:42046:1,2004-04-04T08:00:00Z,27.8903,-94.0367,2.0,119.1870398,11.33979277,-99999.0,'11111222,11111222,99999999' 
TABS,ioos:station:wmo:42046:1,2004-04-04T08:30:00Z,27.8903,-94.0367,2.0,137.705409,14.83041807,-99999.0,'11111222,11111222,99999999' 
TABS,ioos:station:wmo:42046:1,2004-04-04T09:00:00Z,27.8903,-94.0367,2.0,134.4783623,10.87575285,-99999.0,'11111222,11111222,99999999' 
TABS,ioos:station:wmo:42046:1,2004-04-04T09:30:00Z,27.8903,-94.0367,2.0,121.7013555,9.191370953,-99999.0,'11133222,11111222,99999999' 
TABS,ioos:station:wmo:42046:1,2004-04-04T10:00:00Z,27.8903,-94.0367,2.0,101.9142269,11.52834767,-99999.0,'11111222,11111222,99999999' 
TABS,ioos:station:wmo:42046:1,2004-04-04T10:30:00Z,27.8903,-94.0367,2.0,116.2947286,12.32534381,-99999.0,'11111222,11111222,99999999' 
TABS,ioos:station:wmo:42046:1,2004-04-04T11:00:00Z,27.8903,-94.0367,2.0,86.76172517,7.612154754,-99999.0,'11133222,11111222,99999999' 
TABS,ioos:station:wmo:42046:1,2004-04-04T11:30:00Z,27.8903,-94.0367,2.0,63.07572905,12.12419894,-99999.0,'11111222,11111222,99999999' 
TABS,ioos:station:wmo:42046:1,2004-04-04T12:00:00Z,27.8903,-94.0367,2.0,58.7866346,14.95481862,-99999.0,'11111222,11111222,99999999' 
TABS,ioos:station:wmo:42046:1,2004-04-04T12:30:00Z,27.8903,-94.0367,2.0,68.49585317,17.54101764,-99999.0,'11111222,11111222,99999999' 
TABS,ioos:station:wmo:42046:1,2004-04-04T13:00:00Z,27.8903,-94.0367,2.0,67.57469876,16.54086455,-99999.0,'11111222,11111222,99999999' 
TABS,ioos:station:wmo:42046:1,2004-04-04T13:30:00Z,27.8903,-94.0367,2.0,65.5856764,17.63711144,-99999.0,'11111222,11111222,99999999' 
TABS,ioos:station:wmo:42046:1,2004-04-04T14:00:00Z,27.8903,-94.0367,2.0,78.00199983,18.61668606,-99999.0,'11111222,11111222,99999999' 
TABS,ioos:station:wmo:42046:1,2004-04-04T14:30:00Z,27.8903,-94.0367,2.0,69.41930037,19.00280242,-99999.0,'11111222,11111222,99999999' 
TABS,ioos:station:wmo:42046:1,2004-04-04T15:00:00Z,27.8903,-94.0367,2.0,70.33458945,19.87949949,-99999.0,'11111222,11111222,99999999' 
TABS,ioos:station:wmo:42046:1,2004-04-04T15:30:00Z,27.8903,-94.0367,2.0,74.82399167,20.97135427,-99999.0,'11111222,11111222,99999999' 
TABS,ioos:station:wmo:42046:1,2004-04-04T16:00:00Z,27.8903,-94.0367,2.0,69.66947646,21.4140141,-99999.0,'11111222,11111222,99999999' 
TABS,ioos:station:wmo:42046:1,2004-04-04T16:30:00Z,27.8903,-94.0367,2.0,61.85476266,22.21707677,-99999.0,'11111222,11111222,99999999' 
TABS,ioos:station:wmo:42046:1,2004-04-04T17:00:00Z,27.8903,-94.0367,2.0,71.45637403,21.66480325,-99999.0,'11111222,11111222,99999999' 
TABS,ioos:station:wmo:42046:1,2004-04-04T17:30:00Z,27.8903,-94.0367,2.0,67.79244025,20.95438856,-99999.0,'11111222,11111222,99999999' 